LOCATION_NAME,SAMPLE COLLECTION TIME,DOSE EQUIVALENT RATE (nSv/h),GAMMA COUNT RATE R02 (CPM),GAMMA COUNT RATE R03 (CPM),GAMMA COUNT RATE R04 (CPM),GAMMA COUNT RATE R05 (CPM),GAMMA COUNT RATE R06 (CPM),GAMMA COUNT RATE R07 (CPM),GAMMA COUNT RATE R08 (CPM),GAMMA COUNT RATE R09 (CPM),STATUS
TX: LUBBOCK,01/04/2019 16:17:00,,1535.00,1009.00,297.00,164.00,89.00,109.00,68.00,90.00,APPROVED
TX: LUBBOCK,01/04/2019 17:17:00,,1620.00,1119.00,316.00,200.00,103.00,130.00,81.00,93.00,APPROVED
TX: LUBBOCK,01/04/2019 18:18:00,,1627.00,1159.00,323.00,218.00,110.00,140.00,83.00,96.00,APPROVED
TX: LUBBOCK,01/04/2019 19:18:00,,1632.00,1150.00,324.00,218.00,109.00,139.00,84.00,96.00,APPROVED
TX: LUBBOCK,01/04/2019 20:18:00,,1593.00,1108.00,316.00,202.00,103.00,134.00,83.00,94.00,APPROVED
TX: LUBBOCK,01/04/2019 21:18:00,,1540.00,1052.00,303.00,189.00,101.00,125.00,79.00,89.00,APPROVED
TX: LUBBOCK,01/04/2019 22:18:00,,1518.00,1026.00,295.00,185.00,96.00,116.00,73.00,88.00,APPROVED
TX: LUBBOCK,01/04/2019 23:19:00,,1499.00,997.00,285.00,173.00,92.00,114.00,72.00,89.00,APPROVED
TX: LUBBOCK,01/05/2019 00:19:00,,1501.00,994.00,285.00,166.00,92.00,110.00,71.00,93.00,APPROVED
TX: LUBBOCK,01/05/2019 01:19:00,,1491.00,980.00,281.00,165.00,89.00,108.00,69.00,96.00,APPROVED
TX: LUBBOCK,01/05/2019 02:19:00,,1501.00,1004.00,285.00,170.00,91.00,112.00,72.00,94.00,APPROVED
TX: LUBBOCK,01/05/2019 03:20:00,,1540.00,1053.00,300.00,182.00,98.00,118.00,74.00,97.00,APPROVED
TX: LUBBOCK,01/05/2019 04:20:00,,1621.00,1150.00,318.00,209.00,106.00,131.00,82.00,98.00,APPROVED
TX: LUBBOCK,01/05/2019 05:20:00,,1615.00,1162.00,327.00,211.00,106.00,135.00,84.00,97.00,APPROVED
TX: LUBBOCK,01/05/2019 06:20:00,,1585.00,1135.00,324.00,203.00,106.00,133.00,82.00,97.00,APPROVED
TX: LUBBOCK,01/05/2019 07:20:00,,1603.00,1165.00,335.00,208.00,108.00,137.00,84.00,102.00,APPROVED
TX: LUBBOCK,01/05/2019 08:21:00,,1648.00,1220.00,354.00,214.00,113.00,147.00,89.00,97.00,APPROVED
TX: LUBBOCK,01/05/2019 09:21:00,,1673.00,1220.00,402.00,186.00,114.00,162.00,76.00,94.00,APPROVED
TX: LUBBOCK,01/05/2019 10:21:00,,1704.00,1290.00,387.00,233.00,122.00,159.00,93.00,105.00,APPROVED
TX: LUBBOCK,01/05/2019 11:21:00,,1729.00,1341.00,392.00,249.00,123.00,163.00,98.00,101.00,APPROVED
TX: LUBBOCK,01/05/2019 12:21:00,,1766.00,1383.00,400.00,262.00,128.00,172.00,102.00,103.00,APPROVED
TX: LUBBOCK,01/05/2019 13:22:00,,1738.00,1372.00,401.00,254.00,129.00,169.00,102.00,109.00,APPROVED
TX: LUBBOCK,01/05/2019 14:22:00,,1728.00,1344.00,399.00,251.00,125.00,169.00,102.00,108.00,APPROVED
TX: LUBBOCK,01/05/2019 15:22:00,,1704.00,1314.00,389.00,246.00,119.00,164.00,99.00,106.00,APPROVED
TX: LUBBOCK,01/05/2019 16:22:00,,1689.00,1281.00,371.00,242.00,119.00,156.00,97.00,101.00,APPROVED
TX: LUBBOCK,01/05/2019 17:22:00,,1668.00,1229.00,355.00,232.00,113.00,142.00,90.00,104.00,APPROVED
TX: LUBBOCK,01/05/2019 18:23:00,,1625.00,1192.00,337.00,219.00,107.00,134.00,88.00,102.00,APPROVED
TX: LUBBOCK,01/05/2019 19:23:00,,1573.00,1110.00,322.00,196.00,104.00,125.00,82.00,102.00,APPROVED
TX: LUBBOCK,01/05/2019 20:23:00,,1524.00,1062.00,305.00,183.00,96.00,115.00,75.00,92.00,APPROVED
TX: LUBBOCK,01/05/2019 21:23:00,,1498.00,1009.00,293.00,171.00,93.00,108.00,70.00,92.00,APPROVED
TX: LUBBOCK,01/05/2019 22:23:00,,1500.00,1009.00,294.00,166.00,90.00,107.00,71.00,93.00,APPROVED
TX: LUBBOCK,01/05/2019 23:24:00,,1505.00,1008.00,293.00,163.00,92.00,108.00,69.00,93.00,APPROVED
TX: LUBBOCK,01/06/2019 00:24:00,,1514.00,1018.00,290.00,169.00,91.00,109.00,70.00,99.00,APPROVED
TX: LUBBOCK,01/06/2019 01:24:00,,1520.00,1034.00,293.00,168.00,94.00,110.00,72.00,100.00,APPROVED
TX: LUBBOCK,01/06/2019 02:24:00,,1530.00,1050.00,303.00,175.00,95.00,113.00,73.00,98.00,APPROVED
TX: LUBBOCK,01/06/2019 03:24:00,,1533.00,1048.00,304.00,174.00,98.00,114.00,74.00,98.00,APPROVED
TX: LUBBOCK,01/06/2019 04:25:00,,1560.00,1076.00,310.00,178.00,94.00,116.00,74.00,100.00,APPROVED
TX: LUBBOCK,01/06/2019 05:25:00,,1577.00,1104.00,313.00,186.00,96.00,120.00,77.00,98.00,APPROVED
TX: LUBBOCK,01/06/2019 06:25:00,,1590.00,1124.00,316.00,190.00,101.00,121.00,77.00,103.00,APPROVED
TX: LUBBOCK,01/06/2019 07:25:00,,1604.00,1131.00,323.00,195.00,102.00,124.00,80.00,99.00,APPROVED
TX: LUBBOCK,01/06/2019 08:25:00,,1613.00,1131.00,326.00,195.00,101.00,128.00,82.00,97.00,APPROVED
TX: LUBBOCK,01/06/2019 09:26:00,,1621.00,1143.00,330.00,197.00,103.00,126.00,78.00,101.00,APPROVED
TX: LUBBOCK,01/06/2019 10:26:00,,1627.00,1152.00,330.00,194.00,102.00,129.00,82.00,101.00,APPROVED
TX: LUBBOCK,01/06/2019 11:26:00,,1617.00,1145.00,328.00,196.00,103.00,128.00,82.00,102.00,APPROVED
TX: LUBBOCK,01/06/2019 12:26:00,,1625.00,1152.00,331.00,195.00,103.00,127.00,80.00,101.00,APPROVED
TX: LUBBOCK,01/06/2019 13:27:00,,1629.00,1151.00,331.00,193.00,105.00,126.00,80.00,98.00,APPROVED
TX: LUBBOCK,01/06/2019 14:27:00,,1644.00,1152.00,331.00,199.00,106.00,130.00,81.00,101.00,APPROVED
TX: LUBBOCK,01/06/2019 15:27:00,,1634.00,1151.00,333.00,199.00,100.00,128.00,80.00,102.00,APPROVED
TX: LUBBOCK,01/06/2019 16:27:00,,1631.00,1146.00,327.00,200.00,104.00,124.00,82.00,97.00,APPROVED
TX: LUBBOCK,01/06/2019 17:27:00,,1640.00,1162.00,327.00,202.00,105.00,129.00,80.00,101.00,APPROVED
TX: LUBBOCK,01/06/2019 18:28:00,,1681.00,1178.00,333.00,206.00,105.00,134.00,84.00,100.00,APPROVED
TX: LUBBOCK,01/06/2019 19:28:00,,1683.00,1191.00,338.00,214.00,108.00,133.00,86.00,102.00,APPROVED
TX: LUBBOCK,01/06/2019 20:28:00,,1682.00,1202.00,338.00,210.00,108.00,133.00,84.00,98.00,APPROVED
TX: LUBBOCK,01/06/2019 21:28:00,,1680.00,1196.00,336.00,207.00,108.00,134.00,87.00,101.00,APPROVED
TX: LUBBOCK,01/06/2019 22:28:00,,1681.00,1179.00,337.00,210.00,107.00,132.00,83.00,97.00,APPROVED
TX: LUBBOCK,01/06/2019 23:29:00,,1668.00,1177.00,336.00,209.00,105.00,130.00,82.00,102.00,APPROVED
TX: LUBBOCK,01/07/2019 00:29:00,,1661.00,1159.00,327.00,201.00,104.00,129.00,81.00,99.00,APPROVED
TX: LUBBOCK,01/07/2019 01:29:00,,1673.00,1164.00,328.00,208.00,106.00,130.00,80.00,101.00,APPROVED
TX: LUBBOCK,01/07/2019 02:29:00,,1675.00,1173.00,336.00,207.00,106.00,129.00,84.00,103.00,APPROVED
TX: LUBBOCK,01/07/2019 03:29:00,,1648.00,1155.00,330.00,202.00,102.00,129.00,85.00,100.00,APPROVED
TX: LUBBOCK,01/07/2019 04:30:00,,1575.00,1082.00,313.00,186.00,99.00,118.00,76.00,100.00,APPROVED
TX: LUBBOCK,01/07/2019 05:30:00,,1488.00,996.00,290.00,168.00,92.00,110.00,70.00,99.00,APPROVED
TX: LUBBOCK,01/07/2019 06:30:00,,1490.00,993.00,286.00,160.00,88.00,106.00,67.00,98.00,APPROVED
TX: LUBBOCK,01/07/2019 07:30:00,,1489.00,994.00,287.00,165.00,91.00,105.00,69.00,98.00,APPROVED
TX: LUBBOCK,01/07/2019 08:30:00,,1470.00,996.00,284.00,163.00,89.00,107.00,71.00,98.00,APPROVED
TX: LUBBOCK,01/07/2019 09:31:00,,1446.00,969.00,276.00,157.00,87.00,102.00,67.00,95.00,APPROVED
TX: LUBBOCK,01/07/2019 10:31:00,,1437.00,946.00,277.00,150.00,86.00,101.00,65.00,97.00,APPROVED
TX: LUBBOCK,01/07/2019 11:31:00,,1416.00,943.00,273.00,148.00,87.00,99.00,65.00,96.00,APPROVED
TX: LUBBOCK,01/07/2019 12:31:00,,1414.00,926.00,274.00,148.00,84.00,98.00,65.00,92.00,APPROVED
TX: LUBBOCK,01/07/2019 13:31:00,,1404.00,927.00,274.00,145.00,82.00,96.00,66.00,92.00,APPROVED
TX: LUBBOCK,01/07/2019 14:32:00,,1418.00,926.00,271.00,146.00,83.00,96.00,65.00,90.00,APPROVED
TX: LUBBOCK,01/07/2019 15:32:00,,1416.00,930.00,274.00,149.00,86.00,98.00,65.00,91.00,APPROVED
TX: LUBBOCK,01/07/2019 16:32:00,,1414.00,931.00,269.00,148.00,86.00,101.00,67.00,94.00,APPROVED
TX: LUBBOCK,01/07/2019 17:32:00,,1415.00,932.00,269.00,152.00,86.00,97.00,63.00,94.00,APPROVED
TX: LUBBOCK,01/07/2019 18:33:00,,1418.00,928.00,271.00,149.00,84.00,93.00,63.00,94.00,APPROVED
TX: LUBBOCK,01/07/2019 19:33:00,,1417.00,919.00,268.00,149.00,83.00,97.00,63.00,93.00,APPROVED
TX: LUBBOCK,01/07/2019 20:33:00,,1410.00,923.00,267.00,142.00,83.00,99.00,65.00,90.00,APPROVED
TX: LUBBOCK,01/07/2019 21:33:00,,1411.00,915.00,266.00,144.00,82.00,96.00,65.00,91.00,APPROVED
TX: LUBBOCK,01/07/2019 22:33:00,,1401.00,908.00,265.00,144.00,83.00,97.00,64.00,90.00,APPROVED
TX: LUBBOCK,01/07/2019 23:34:00,,1409.00,900.00,260.00,141.00,84.00,95.00,61.00,88.00,APPROVED
TX: LUBBOCK,01/08/2019 00:34:00,,1407.00,904.00,263.00,141.00,81.00,94.00,59.00,94.00,APPROVED
TX: LUBBOCK,01/08/2019 01:34:00,,1402.00,905.00,261.00,140.00,82.00,93.00,61.00,92.00,APPROVED
TX: LUBBOCK,01/08/2019 02:34:00,,1403.00,906.00,263.00,143.00,82.00,94.00,63.00,96.00,APPROVED
TX: LUBBOCK,01/08/2019 03:34:00,,1402.00,914.00,266.00,142.00,82.00,96.00,64.00,92.00,APPROVED
TX: LUBBOCK,01/08/2019 04:35:00,,1408.00,922.00,268.00,146.00,83.00,96.00,63.00,97.00,APPROVED
TX: LUBBOCK,01/08/2019 05:35:00,,1428.00,936.00,272.00,151.00,84.00,101.00,65.00,95.00,APPROVED
TX: LUBBOCK,01/08/2019 06:35:00,,1426.00,933.00,277.00,151.00,86.00,97.00,65.00,94.00,APPROVED
TX: LUBBOCK,01/08/2019 07:35:00,,1434.00,941.00,275.00,149.00,86.00,101.00,64.00,95.00,APPROVED
TX: LUBBOCK,01/08/2019 08:35:00,,1432.00,950.00,275.00,152.00,86.00,101.00,65.00,94.00,APPROVED
TX: LUBBOCK,01/08/2019 09:36:00,,1442.00,958.00,285.00,154.00,89.00,102.00,68.00,98.00,APPROVED
TX: LUBBOCK,01/08/2019 10:36:00,,1447.00,971.00,283.00,159.00,88.00,106.00,69.00,93.00,APPROVED
TX: LUBBOCK,01/08/2019 11:36:00,,1478.00,999.00,293.00,165.00,92.00,111.00,72.00,98.00,APPROVED
TX: LUBBOCK,01/08/2019 12:36:00,,1489.00,982.00,311.00,148.00,91.00,118.00,59.00,85.00,APPROVED
TX: LUBBOCK,01/08/2019 13:36:00,,1477.00,919.00,311.00,129.00,86.00,119.00,46.00,88.00,APPROVED
TX: LUBBOCK,01/08/2019 14:37:00,,1465.00,922.00,307.00,129.00,83.00,117.00,47.00,89.00,APPROVED
TX: LUBBOCK,01/08/2019 15:37:00,,1458.00,900.00,298.00,126.00,86.00,114.00,45.00,89.00,APPROVED
TX: LUBBOCK,01/08/2019 16:17:00,,1446.00,888.00,294.00,126.00,82.00,111.00,45.00,87.00,APPROVED
TX: LUBBOCK,01/08/2019 17:23:00,,1338.00,750.00,241.00,109.00,74.00,94.00,33.00,81.00,APPROVED
TX: LUBBOCK,01/08/2019 18:24:00,,1339.00,745.00,248.00,108.00,76.00,94.00,33.00,82.00,APPROVED
TX: LUBBOCK,01/08/2019 19:24:00,,1357.00,748.00,251.00,108.00,75.00,93.00,33.00,85.00,APPROVED
TX: LUBBOCK,01/08/2019 20:24:00,,1339.00,757.00,253.00,110.00,76.00,93.00,33.00,85.00,APPROVED
TX: LUBBOCK,01/08/2019 21:24:00,,1343.00,751.00,247.00,110.00,77.00,93.00,34.00,83.00,APPROVED
TX: LUBBOCK,01/08/2019 22:24:00,,1351.00,755.00,250.00,110.00,76.00,97.00,33.00,83.00,APPROVED
TX: LUBBOCK,01/08/2019 23:25:00,,1345.00,752.00,247.00,110.00,75.00,94.00,33.00,85.00,APPROVED
TX: LUBBOCK,01/09/2019 00:25:00,,1341.00,744.00,246.00,111.00,76.00,93.00,34.00,83.00,APPROVED
TX: LUBBOCK,01/09/2019 01:25:00,,1349.00,768.00,250.00,112.00,78.00,93.00,38.00,87.00,APPROVED
TX: LUBBOCK,01/09/2019 03:26:00,,1357.00,790.00,260.00,110.00,75.00,103.00,36.00,84.00,APPROVED
TX: LUBBOCK,01/09/2019 04:26:00,,1376.00,810.00,272.00,116.00,79.00,106.00,38.00,87.00,APPROVED
TX: LUBBOCK,01/09/2019 05:26:00,,1394.00,843.00,278.00,118.00,80.00,108.00,39.00,87.00,APPROVED
TX: LUBBOCK,01/09/2019 06:26:00,,1400.00,865.00,291.00,120.00,81.00,111.00,43.00,85.00,APPROVED
TX: LUBBOCK,01/09/2019 07:26:00,,1405.00,868.00,292.00,124.00,84.00,114.00,43.00,88.00,APPROVED
TX: LUBBOCK,01/09/2019 08:27:00,,1410.00,879.00,296.00,125.00,85.00,113.00,44.00,90.00,APPROVED
TX: LUBBOCK,01/09/2019 09:27:00,,1419.00,899.00,299.00,124.00,84.00,115.00,45.00,90.00,APPROVED
TX: LUBBOCK,01/09/2019 10:27:00,,1411.00,892.00,297.00,123.00,83.00,114.00,46.00,91.00,APPROVED
TX: LUBBOCK,01/09/2019 11:27:00,,1428.00,893.00,302.00,124.00,83.00,116.00,44.00,90.00,APPROVED
TX: LUBBOCK,01/09/2019 12:27:00,,1434.00,902.00,298.00,126.00,85.00,115.00,45.00,89.00,APPROVED
TX: LUBBOCK,01/09/2019 13:28:00,,1431.00,906.00,301.00,129.00,83.00,114.00,46.00,90.00,APPROVED
TX: LUBBOCK,01/09/2019 14:28:00,,1477.00,948.00,315.00,134.00,85.00,123.00,50.00,90.00,APPROVED
TX: LUBBOCK,01/09/2019 15:28:00,,1531.00,1018.00,341.00,144.00,93.00,130.00,53.00,91.00,APPROVED
TX: LUBBOCK,01/09/2019 16:28:00,,1500.00,938.00,326.00,134.00,91.00,121.00,46.00,88.00,APPROVED
TX: LUBBOCK,01/09/2019 17:05:00,,1435.00,826.00,296.00,124.00,84.00,102.00,42.00,92.00,APPROVED
TX: LUBBOCK,01/09/2019 18:21:00,,1403.00,787.00,270.00,113.00,79.00,98.00,37.00,90.00,APPROVED
TX: LUBBOCK,01/09/2019 22:15:00,,1732.00,1115.00,293.00,142.00,84.00,94.00,59.00,27.00,APPROVED
TX: LUBBOCK,01/09/2019 23:15:00,,1725.00,1098.00,287.00,138.00,81.00,96.00,58.00,25.00,APPROVED
TX: LUBBOCK,01/10/2019 00:15:00,,1718.00,1093.00,287.00,135.00,83.00,93.00,57.00,25.00,APPROVED
TX: LUBBOCK,01/10/2019 01:16:00,,1736.00,1087.00,292.00,135.00,84.00,99.00,56.00,25.00,APPROVED
TX: LUBBOCK,01/10/2019 02:16:00,,1750.00,1112.00,299.00,143.00,84.00,103.00,56.00,26.00,APPROVED
TX: LUBBOCK,01/10/2019 03:16:00,,1763.00,1147.00,301.00,148.00,87.00,102.00,62.00,26.00,APPROVED
TX: LUBBOCK,01/10/2019 04:16:00,,1807.00,1209.00,315.00,164.00,93.00,108.00,66.00,29.00,APPROVED
TX: LUBBOCK,01/10/2019 05:16:00,,1804.00,1211.00,307.00,163.00,92.00,108.00,65.00,29.00,APPROVED
TX: LUBBOCK,01/10/2019 06:17:00,,1812.00,1216.00,306.00,169.00,93.00,107.00,67.00,29.00,APPROVED
TX: LUBBOCK,01/10/2019 07:17:00,,1823.00,1222.00,318.00,166.00,91.00,112.00,67.00,28.00,APPROVED
TX: LUBBOCK,01/10/2019 08:17:00,,1825.00,1239.00,321.00,175.00,94.00,111.00,68.00,30.00,APPROVED
TX: LUBBOCK,01/10/2019 09:17:00,,1844.00,1304.00,320.00,197.00,99.00,119.00,72.00,34.00,APPROVED
TX: LUBBOCK,01/10/2019 10:17:00,,1879.00,1306.00,321.00,196.00,99.00,117.00,74.00,32.00,APPROVED
TX: LUBBOCK,01/10/2019 11:18:00,,1901.00,1333.00,335.00,198.00,100.00,122.00,73.00,32.00,APPROVED
TX: LUBBOCK,01/10/2019 12:18:00,,1942.00,1370.00,349.00,205.00,105.00,127.00,75.00,33.00,APPROVED
TX: LUBBOCK,01/10/2019 13:18:00,,1913.00,1357.00,341.00,207.00,104.00,126.00,76.00,33.00,APPROVED
TX: LUBBOCK,01/10/2019 14:18:00,,1892.00,1348.00,330.00,207.00,103.00,124.00,73.00,35.00,APPROVED
TX: LUBBOCK,01/10/2019 15:18:00,,1911.00,1356.00,328.00,208.00,104.00,125.00,75.00,34.00,APPROVED
TX: LUBBOCK,01/10/2019 16:19:00,,1894.00,1305.00,336.00,186.00,102.00,118.00,72.00,32.00,APPROVED
TX: LUBBOCK,01/10/2019 17:19:00,,1843.00,1226.00,330.00,163.00,95.00,112.00,65.00,29.00,APPROVED
TX: LUBBOCK,01/10/2019 18:19:00,,1847.00,1217.00,318.00,157.00,91.00,106.00,64.00,29.00,APPROVED
TX: LUBBOCK,01/10/2019 19:19:00,,1854.00,1225.00,320.00,164.00,92.00,106.00,69.00,30.00,APPROVED
TX: LUBBOCK,01/10/2019 20:19:00,,1879.00,1252.00,318.00,171.00,91.00,110.00,69.00,30.00,APPROVED
TX: LUBBOCK,01/10/2019 21:20:00,,1886.00,1256.00,320.00,178.00,96.00,111.00,68.00,31.00,APPROVED
TX: LUBBOCK,01/10/2019 22:20:00,,1876.00,1254.00,317.00,178.00,96.00,111.00,70.00,31.00,APPROVED
TX: LUBBOCK,01/10/2019 23:20:00,,1866.00,1242.00,313.00,174.00,93.00,109.00,67.00,30.00,APPROVED
TX: LUBBOCK,01/11/2019 00:20:00,,1864.00,1237.00,314.00,171.00,92.00,105.00,68.00,29.00,APPROVED
TX: LUBBOCK,01/11/2019 01:20:00,,1870.00,1233.00,312.00,170.00,94.00,108.00,66.00,28.00,APPROVED
TX: LUBBOCK,01/11/2019 02:21:00,,1854.00,1231.00,318.00,162.00,94.00,111.00,68.00,28.00,APPROVED
TX: LUBBOCK,01/11/2019 03:21:00,,1862.00,1216.00,319.00,159.00,94.00,108.00,65.00,29.00,APPROVED
TX: LUBBOCK,01/11/2019 04:21:00,,1854.00,1216.00,318.00,163.00,95.00,111.00,65.00,28.00,APPROVED
TX: LUBBOCK,01/11/2019 05:21:00,,1871.00,1226.00,328.00,161.00,92.00,113.00,65.00,29.00,APPROVED
TX: LUBBOCK,01/11/2019 06:21:00,,1875.00,1220.00,324.00,158.00,95.00,115.00,64.00,29.00,APPROVED
TX: LUBBOCK,01/11/2019 07:22:00,,1889.00,1238.00,331.00,159.00,93.00,118.00,64.00,27.00,APPROVED
TX: LUBBOCK,01/11/2019 08:22:00,,1915.00,1256.00,337.00,161.00,96.00,115.00,65.00,28.00,APPROVED
TX: LUBBOCK,01/11/2019 09:22:00,,1938.00,1278.00,349.00,168.00,97.00,123.00,66.00,29.00,APPROVED
TX: LUBBOCK,01/11/2019 10:22:00,,1972.00,1317.00,366.00,169.00,102.00,128.00,68.00,29.00,APPROVED
TX: LUBBOCK,01/11/2019 11:22:00,,1957.00,1291.00,355.00,168.00,98.00,128.00,67.00,29.00,APPROVED
TX: LUBBOCK,01/11/2019 12:23:00,,1933.00,1285.00,350.00,166.00,97.00,124.00,67.00,28.00,APPROVED
TX: LUBBOCK,01/11/2019 13:23:00,,1979.00,1327.00,359.00,179.00,102.00,126.00,69.00,31.00,APPROVED
TX: LUBBOCK,01/11/2019 14:23:00,,2003.00,1377.00,368.00,195.00,104.00,132.00,75.00,31.00,APPROVED
TX: LUBBOCK,01/11/2019 15:16:00,,2005.00,1395.00,382.00,189.00,106.00,140.00,75.00,31.00,APPROVED
TX: LUBBOCK,01/11/2019 16:22:00,,1857.00,1150.00,302.00,142.00,87.00,107.00,55.00,23.00,APPROVED
TX: LUBBOCK,01/11/2019 17:22:00,,1882.00,1198.00,323.00,158.00,92.00,115.00,63.00,25.00,APPROVED
TX: LUBBOCK,01/11/2019 18:23:00,,1876.00,1190.00,317.00,160.00,92.00,113.00,64.00,24.00,APPROVED
TX: LUBBOCK,01/11/2019 19:23:00,,1841.00,1183.00,307.00,162.00,92.00,110.00,63.00,25.00,APPROVED
TX: LUBBOCK,01/11/2019 20:23:00,,1904.00,1237.00,314.00,172.00,97.00,111.00,66.00,26.00,APPROVED
TX: LUBBOCK,01/11/2019 21:23:00,,2027.00,1340.00,332.00,190.00,101.00,125.00,74.00,28.00,APPROVED
TX: LUBBOCK,01/11/2019 22:23:00,,2083.00,1412.00,356.00,210.00,107.00,133.00,77.00,28.00,APPROVED
TX: LUBBOCK,01/11/2019 23:24:00,,2068.00,1409.00,361.00,210.00,109.00,136.00,77.00,30.00,APPROVED
TX: LUBBOCK,01/12/2019 00:24:00,,2077.00,1390.00,369.00,203.00,107.00,138.00,77.00,30.00,APPROVED
TX: LUBBOCK,01/12/2019 01:24:00,,2088.00,1381.00,374.00,192.00,108.00,139.00,72.00,29.00,APPROVED
TX: LUBBOCK,01/12/2019 02:24:00,,1982.00,1341.00,350.00,191.00,104.00,134.00,74.00,29.00,APPROVED
TX: LUBBOCK,01/12/2019 03:24:00,,1965.00,1341.00,337.00,206.00,106.00,129.00,78.00,29.00,APPROVED
TX: LUBBOCK,01/12/2019 04:25:00,,2000.00,1394.00,352.00,220.00,111.00,134.00,81.00,32.00,APPROVED
TX: LUBBOCK,01/12/2019 05:25:00,,1965.00,1403.00,346.00,231.00,113.00,136.00,80.00,34.00,APPROVED
TX: LUBBOCK,01/12/2019 06:25:00,,1950.00,1389.00,342.00,229.00,114.00,137.00,78.00,36.00,APPROVED
TX: LUBBOCK,01/12/2019 07:25:00,,1958.00,1415.00,342.00,236.00,112.00,138.00,79.00,37.00,APPROVED
TX: LUBBOCK,01/12/2019 08:25:00,,1949.00,1407.00,341.00,231.00,115.00,136.00,79.00,37.00,APPROVED
TX: LUBBOCK,01/12/2019 09:26:00,,1892.00,1333.00,331.00,211.00,107.00,127.00,76.00,34.00,APPROVED
TX: LUBBOCK,01/12/2019 10:26:00,,1848.00,1280.00,318.00,202.00,102.00,120.00,71.00,33.00,APPROVED
TX: LUBBOCK,01/12/2019 11:26:00,,1811.00,1283.00,314.00,201.00,101.00,122.00,72.00,34.00,APPROVED
TX: LUBBOCK,01/12/2019 12:26:00,,1777.00,1277.00,323.00,199.00,100.00,122.00,72.00,35.00,APPROVED
TX: LUBBOCK,01/12/2019 13:26:00,,1785.00,1294.00,327.00,198.00,98.00,127.00,72.00,34.00,APPROVED
TX: LUBBOCK,01/12/2019 14:27:00,,1751.00,1261.00,322.00,197.00,98.00,126.00,72.00,34.00,APPROVED
TX: LUBBOCK,01/12/2019 15:27:00,,1769.00,1278.00,326.00,198.00,97.00,122.00,71.00,35.00,APPROVED
TX: LUBBOCK,01/12/2019 16:27:00,,1791.00,1305.00,333.00,207.00,99.00,125.00,74.00,37.00,APPROVED
TX: LUBBOCK,01/12/2019 17:27:00,,1764.00,1286.00,328.00,200.00,98.00,126.00,74.00,35.00,APPROVED
TX: LUBBOCK,01/12/2019 18:28:00,,1754.00,1263.00,322.00,194.00,97.00,121.00,72.00,34.00,APPROVED
TX: LUBBOCK,01/12/2019 19:28:00,,1742.00,1223.00,308.00,181.00,93.00,112.00,67.00,31.00,APPROVED
TX: LUBBOCK,01/12/2019 20:28:00,,1749.00,1136.00,292.00,161.00,89.00,100.00,61.00,27.00,APPROVED
TX: LUBBOCK,01/12/2019 21:28:00,,1762.00,1116.00,290.00,145.00,85.00,100.00,61.00,24.00,APPROVED
TX: LUBBOCK,01/12/2019 22:28:00,,1756.00,1116.00,293.00,143.00,85.00,100.00,60.00,25.00,APPROVED
TX: LUBBOCK,01/12/2019 23:29:00,,1743.00,1099.00,290.00,140.00,84.00,97.00,57.00,25.00,APPROVED
TX: LUBBOCK,01/13/2019 00:29:00,,1745.00,1083.00,289.00,135.00,85.00,100.00,55.00,24.00,APPROVED
TX: LUBBOCK,01/13/2019 01:29:00,,1728.00,1173.00,292.00,170.00,88.00,106.00,64.00,28.00,APPROVED
TX: LUBBOCK,01/13/2019 02:29:00,,1742.00,1224.00,307.00,181.00,93.00,115.00,70.00,33.00,APPROVED
TX: LUBBOCK,01/13/2019 03:29:00,,1733.00,1245.00,316.00,188.00,92.00,118.00,69.00,34.00,APPROVED
TX: LUBBOCK,01/13/2019 04:30:00,,1746.00,1264.00,324.00,192.00,93.00,122.00,70.00,34.00,APPROVED
TX: LUBBOCK,01/13/2019 05:30:00,,1771.00,1304.00,334.00,205.00,99.00,128.00,74.00,36.00,APPROVED
TX: LUBBOCK,01/13/2019 06:30:00,,1800.00,1350.00,344.00,218.00,106.00,133.00,79.00,38.00,APPROVED
TX: LUBBOCK,01/13/2019 07:30:00,,1821.00,1390.00,350.00,229.00,110.00,136.00,82.00,40.00,APPROVED
TX: LUBBOCK,01/13/2019 08:30:00,,1837.00,1415.00,356.00,239.00,112.00,138.00,83.00,44.00,APPROVED
TX: LUBBOCK,01/13/2019 09:31:00,,1843.00,1423.00,357.00,237.00,113.00,138.00,82.00,42.00,APPROVED
TX: LUBBOCK,01/13/2019 10:31:00,,1846.00,1427.00,354.00,242.00,115.00,142.00,83.00,42.00,APPROVED
TX: LUBBOCK,01/13/2019 11:31:00,,1847.00,1452.00,366.00,249.00,115.00,145.00,85.00,44.00,APPROVED
TX: LUBBOCK,01/13/2019 12:31:00,,1920.00,1551.00,392.00,281.00,125.00,160.00,91.00,48.00,APPROVED
TX: LUBBOCK,01/13/2019 13:31:00,,1993.00,1669.00,420.00,315.00,136.00,176.00,100.00,56.00,APPROVED
TX: LUBBOCK,01/13/2019 14:32:00,,2070.00,1795.00,448.00,343.00,147.00,192.00,109.00,62.00,APPROVED
TX: LUBBOCK,01/13/2019 17:32:00,,1978.00,1582.00,393.00,283.00,128.00,155.00,91.00,50.00,APPROVED
TX: LUBBOCK,01/13/2019 18:32:00,,1892.00,1443.00,352.00,233.00,110.00,128.00,81.00,41.00,APPROVED
TX: LUBBOCK,01/13/2019 19:33:00,,1872.00,1434.00,356.00,234.00,108.00,132.00,79.00,44.00,APPROVED
TX: LUBBOCK,01/13/2019 20:33:00,,1877.00,1420.00,357.00,229.00,106.00,128.00,80.00,43.00,APPROVED
TX: LUBBOCK,01/13/2019 21:33:00,,1865.00,1433.00,363.00,226.00,107.00,127.00,78.00,42.00,APPROVED
TX: LUBBOCK,01/13/2019 23:33:00,,1827.00,1391.00,346.00,218.00,104.00,126.00,78.00,42.00,APPROVED
TX: LUBBOCK,01/14/2019 00:34:00,,1819.00,1378.00,347.00,217.00,103.00,126.00,75.00,40.00,APPROVED
TX: LUBBOCK,01/14/2019 01:34:00,,1819.00,1372.00,340.00,220.00,102.00,128.00,76.00,40.00,APPROVED
TX: LUBBOCK,01/14/2019 02:34:00,,1828.00,1372.00,328.00,217.00,104.00,124.00,75.00,37.00,APPROVED
TX: LUBBOCK,01/14/2019 03:34:00,,1826.00,1365.00,331.00,220.00,104.00,123.00,74.00,39.00,APPROVED
TX: LUBBOCK,01/14/2019 04:34:00,,1839.00,1393.00,334.00,229.00,107.00,130.00,77.00,40.00,APPROVED
TX: LUBBOCK,01/14/2019 05:35:00,,1823.00,1378.00,333.00,235.00,109.00,132.00,79.00,41.00,APPROVED
TX: LUBBOCK,01/14/2019 06:35:00,,1824.00,1374.00,332.00,231.00,106.00,132.00,77.00,41.00,APPROVED
TX: LUBBOCK,01/14/2019 07:35:00,,1832.00,1374.00,337.00,234.00,107.00,129.00,77.00,40.00,APPROVED
TX: LUBBOCK,01/14/2019 08:35:00,,1836.00,1401.00,342.00,236.00,110.00,133.00,79.00,42.00,APPROVED
TX: LUBBOCK,01/14/2019 09:36:00,,1841.00,1386.00,338.00,238.00,108.00,132.00,80.00,42.00,APPROVED
TX: LUBBOCK,01/14/2019 10:36:00,,1850.00,1400.00,339.00,232.00,111.00,132.00,80.00,39.00,APPROVED
TX: LUBBOCK,01/14/2019 11:36:00,,1867.00,1434.00,347.00,243.00,111.00,136.00,80.00,41.00,APPROVED
TX: LUBBOCK,01/14/2019 12:36:00,,1897.00,1459.00,352.00,253.00,117.00,138.00,85.00,44.00,APPROVED
TX: LUBBOCK,01/14/2019 13:36:00,,1919.00,1482.00,360.00,258.00,117.00,140.00,85.00,43.00,APPROVED
TX: LUBBOCK,01/14/2019 14:37:00,,1943.00,1499.00,363.00,258.00,116.00,142.00,85.00,46.00,APPROVED
TX: LUBBOCK,01/14/2019 15:37:00,,1976.00,1534.00,369.00,266.00,119.00,148.00,84.00,46.00,APPROVED
TX: LUBBOCK,01/14/2019 16:37:00,,1955.00,1497.00,367.00,256.00,118.00,139.00,85.00,45.00,APPROVED
TX: LUBBOCK,01/14/2019 17:29:00,,1928.00,1453.00,364.00,233.00,114.00,137.00,84.00,41.00,APPROVED
TX: LUBBOCK,01/16/2019 16:19:00,,2147.00,1569.00,475.00,207.00,121.00,173.00,85.00,43.00,APPROVED
TX: LUBBOCK,01/16/2019 17:19:00,,2054.00,1431.00,429.00,180.00,107.00,152.00,71.00,41.00,APPROVED
TX: LUBBOCK,01/16/2019 18:19:00,,1996.00,1363.00,393.00,175.00,105.00,136.00,73.00,40.00,APPROVED
TX: LUBBOCK,01/16/2019 19:19:00,,1940.00,1313.00,371.00,168.00,98.00,124.00,70.00,38.00,APPROVED
TX: LUBBOCK,01/16/2019 20:20:00,,1896.00,1271.00,356.00,166.00,97.00,115.00,71.00,37.00,APPROVED
TX: LUBBOCK,01/16/2019 21:20:00,,1863.00,1225.00,332.00,163.00,92.00,108.00,68.00,36.00,APPROVED
TX: LUBBOCK,01/16/2019 22:20:00,,1813.00,1191.00,329.00,153.00,91.00,103.00,65.00,34.00,APPROVED
TX: LUBBOCK,01/16/2019 23:20:00,,1812.00,1174.00,320.00,144.00,88.00,98.00,63.00,34.00,APPROVED
TX: LUBBOCK,01/17/2019 00:21:00,,1825.00,1164.00,320.00,145.00,88.00,104.00,61.00,34.00,APPROVED